Orbital Elements at Epoch 2459000.5 (2020-May-31.0) TDB
Reference: JPL 28 (heliocentric ecliptic J2000)
Element | Value | Uncertainty (1-sigma) | Units |
e | .2794179844760561 | 4.413e-08 | |
a | 2.644584504209816 | 1.5377e-08 | au |
q | 1.905640032266899 | 1.1803e-07 | au |
i | 4.847560626897624 | 4.3357e-06 | deg |
node | 21.40898033345872 | 5.5475e-05 | deg |
peri | 309.920862543877 | 5.5785e-05 | deg |
M | 118.4969230620978 | 7.8187e-06 | deg |
tp | 2458483.442106111481 (2018-Dec-30.94210611) | 3.1644e-05 | TDB |
period | 1570.849579801499 4.30 | 1.3701e-05 3.751e-08 | d yr |
n | .2291753485686972 | 1.9988e-09 | deg/d |
Q | 3.383528976152733 | 1.9674e-08 | au |
|
| | Orbit Determination Parameters
Additional Information
|